TJS-2

Last updated on Tue Oct 08 2024 00:02:40 GMT+0000 (Coordinated Universal Time)

1 41911U 17001A 24281.18556316 .00000005 00000+0 00000+0 0 9990 2 41911 0.0803 95.1153 0000628 177.3374 237.1644 1.00270898 28531
UTC large
Height (km)
Speed (km/s)
/
Latitude / Longitude
Inclination (degrees)
Orbital Period (minutes)
Azimuth
Elevation
Range (km)
Doppler Factor

Next 0 passes for location: London (51.5072 / 0.1276)

Sorry there are no passes over London.